When you browse on this site, cookies collect data to enhance your experience and personalize the content and advertising you see.
Visit our Privacy Policy to learn more. By continuing to use the site, you agree to this use of cookies and data.
  • en Suisse
  • Liste des pays
  • À 7 jours
  • Température de l'eau
  • Carte satellitaire
  • Carte météo
  • Widgets météo
  • user-avatar
    Se connecter

    Météo par heure à Prutz

    Ce jour, 22 Mars, Vendredi

    Heure Température Précipitation Vent Pression Humidité
    00:00 -2°C° 0 mm 3 m/s 639 mmHg 42%
    01:00 -4°C° 0 mm 3 m/s 639 mmHg 42%
    02:00 -2°C° 0 mm 3 m/s 639 mmHg 42%
    03:00 -2°C° 0 mm 3 m/s 639 mmHg 43%
    04:00 -2°C° 0 mm 3 m/s 639 mmHg 44%
    05:00 -2°C° 0 mm 3 m/s 639 mmHg 44%
    06:00 -2°C° 0 mm 3 m/s 639 mmHg 43%
    07:00 -1°C° 0 mm 2 m/s 639 mmHg 43%
    08:00 +2°C° 0 mm 2 m/s 640 mmHg 58%
    09:00 +4°C° 0 mm 2 m/s 640 mmHg 73%
    10:00 +8°C° 0 mm 1 m/s 641 mmHg 88%
    11:00 +9°C° 0 mm 1 m/s 641 mmHg 88%
    12:00 +9°C° 0 mm 1 m/s 641 mmHg 88%
    13:00 +10°C° 0 mm 1 m/s 641 mmHg 88%
    14:00 +8°C° 0 mm 0 m/s 640 mmHg 88%
    15:00 +8°C° 0 mm 0 m/s 640 mmHg 88%
    16:00 +8°C° 0 mm 0 m/s 640 mmHg 88%
    17:00 +6°C° 0 mm 0 m/s 639 mmHg 86%
    18:00 +5°C° 0 mm 1 m/s 638 mmHg 83%
    19:00 +3°C° 0 mm 1 m/s 638 mmHg 81%
    20:00 +3°C° 0 mm 1 m/s 638 mmHg 76%
    21:00 +3°C° 0 mm 1 m/s 638 mmHg 71%
    22:00 +1°C° 0 mm 2 m/s 638 mmHg 67%
    23:00 +1°C° 0 mm 2 m/s 638 mmHg 63%

    Demain, 23 Mars, Samedi

    Heure Température Précipitation Vent Pression Humidité
    00:00 +1°C° 0 mm 2 m/s 638 mmHg 60%
    01:00 +1°C° 0 mm 1 m/s 638 mmHg 56%
    02:00 +1°C° 0 mm 1 m/s 638 mmHg 56%
    03:00 +1°C° 0 mm 1 m/s 638 mmHg 56%
    04:00 +1°C° 0 mm 1 m/s 637 mmHg 55%
    05:00 +1°C° 0 mm 1 m/s 638 mmHg 56%
    06:00 +1°C° 0 mm 1 m/s 638 mmHg 57%
    07:00 +1°C° 0 mm 1 m/s 638 mmHg 57%
    08:00 +3°C° 0 mm 1 m/s 638 mmHg 64%
    09:00 +6°C° 0 mm 1 m/s 639 mmHg 70%
    10:00 +8°C° 0 mm 1 m/s 639 mmHg 77%
    11:00 +8°C° 0 mm 1 m/s 639 mmHg 76%
    12:00 +9°C° 0 mm 1 m/s 639 mmHg 76%
    13:00 +8°C° 0 mm 0 m/s 639 mmHg 76%
    14:00 +9°C° 0 mm 1 m/s 639 mmHg 77%
    15:00 +9°C° 0 mm 1 m/s 638 mmHg 79%
    16:00 +9°C° 0 mm 1 m/s 638 mmHg 80%
    17:00 +6°C° 0 mm 0 m/s 637 mmHg 82%
    18:00 +4°C° 0 mm 0 m/s 637 mmHg 84%
    19:00 +2°C° 0 mm 0 m/s 636 mmHg 85%
    20:00 +2°C° 0 mm 1 m/s 637 mmHg 83%
    21:00 +2°C° 0 mm 1 m/s 637 mmHg 82%
    22:00 +2°C° 0 mm 1 m/s 637 mmHg 80%
    23:00 +2°C° 0 mm 1 m/s 637 mmHg 75%

    Après-demain, 24 Mars, Dimanche

    Heure Température Précipitation Vent Pression Humidité
    00:00 +1°C° 0 mm 2 m/s 637 mmHg 70%
    01:00 +1°C° 0 mm 2 m/s 637 mmHg 66%
    02:00 +1°C° 0 mm 2 m/s 637 mmHg 63%
    03:00 +1°C° 0 mm 2 m/s 636 mmHg 61%
    04:00 +1°C° 0 mm 2 m/s 636 mmHg 58%
    05:00 +1°C° 0 mm 2 m/s 636 mmHg 58%
    06:00 +1°C° 0 mm 2 m/s 636 mmHg 57%
    07:00 +1°C° 0 mm 2 m/s 636 mmHg 57%
    08:00 +4°C° 0 mm 1 m/s 637 mmHg 62%
    09:00 +6°C° 0 mm 1 m/s 637 mmHg 67%
    10:00 +7°C° 0 mm 0 m/s 638 mmHg 71%
    11:00 +9°C° 0 mm 1 m/s 638 mmHg 72%
    12:00 +9°C° 0 mm 1 m/s 637 mmHg 73%
    13:00 +9°C° 0 mm 1 m/s 637 mmHg 74%
    14:00 +9°C° 0 mm 1 m/s 637 mmHg 77%
    15:00 +9°C° 0 mm 1 m/s 637 mmHg 79%
    16:00 +8°C° 0 mm 1 m/s 636 mmHg 82%
    17:00 +7°C° 0 mm 1 m/s 636 mmHg 87%
    18:00 +5°C° 0 mm 1 m/s 635 mmHg 92%
    19:00 +3°C° 0 mm 1 m/s 635 mmHg 98%
    20:00 +3°C° 0 mm 1 m/s 636 mmHg 97%
    21:00 +4°C° 0 mm 1 m/s 636 mmHg 97%
    22:00 +4°C° 0 mm 1 m/s 636 mmHg 97%
    23:00 +4°C° 0 mm 1 m/s 636 mmHg 96%

    25 Mars, Lundi

    Heure Température Précipitation Vent Pression Humidité
    00:00 +3°C° 0 mm 1 m/s 636 mmHg 95%
    01:00 +3°C° 0 mm 1 m/s 636 mmHg 94%
    02:00 +3°C° 0 mm 1 m/s 636 mmHg 94%
    03:00 +2°C° 0 mm 1 m/s 636 mmHg 94%
    04:00 0°C° 0 mm 0 m/s 635 mmHg 93%
    05:00 0°C° 0 mm 0 m/s 635 mmHg 93%
    06:00 +1°C° 0 mm 1 m/s 636 mmHg 92%
    07:00 +2°C° 0 mm 1 m/s 636 mmHg 91%
    08:00 +3°C° 0 mm 1 m/s 636 mmHg 90%
    09:00 +3°C° 0 mm 2 m/s 637 mmHg 88%
    10:00 +4°C° 0 mm 2 m/s 637 mmHg 87%
    11:00 +4°C° 0.1 mm 2 m/s 637 mmHg 86%
    12:00 +4°C° 0.1 mm 2 m/s 637 mmHg 86%
    13:00 +4°C° 0.1 mm 2 m/s 636 mmHg 86%
    14:00 +4°C° 0.1 mm 2 m/s 636 mmHg 86%
    15:00 +4°C° 0.1 mm 2 m/s 636 mmHg 87%
    16:00 +3°C° 0.1 mm 2 m/s 636 mmHg 87%
    17:00 +2°C° 0.1 mm 2 m/s 636 mmHg 90%
    18:00 +1°C° 0.1 mm 2 m/s 636 mmHg 93%
    19:00 -1°C° 0.1 mm 2 m/s 636 mmHg 96%
    20:00 -1°C° 0.1 mm 2 m/s 636 mmHg 96%
    21:00 -2°C° 0.1 mm 2 m/s 637 mmHg 96%
    22:00 -2°C° 0.1 mm 2 m/s 637 mmHg 96%
    23:00 -3°C° 0 mm 2 m/s 637 mmHg 96%

    26 Mars, Mardi

    Heure Température Précipitation Vent Pression Humidité
    00:00 -3°C° 0 mm 2 m/s 637 mmHg 96%
    01:00 -2°C° 0 mm 1 m/s 637 mmHg 95%
    02:00 -2°C° 0 mm 1 m/s 637 mmHg 95%
    03:00 -3°C° 0 mm 1 m/s 637 mmHg 94%
    04:00 -3°C° 0 mm 1 m/s 637 mmHg 93%
    05:00 -4°C° 0 mm 1 m/s 637 mmHg 91%
    06:00 -4°C° 0 mm 1 m/s 637 mmHg 89%
    07:00 -4°C° 0 mm 1 m/s 637 mmHg 86%
    08:00 -2°C° 0 mm 1 m/s 638 mmHg 77%
    09:00 -2°C° 0 mm 2 m/s 638 mmHg 68%
    10:00 +1°C° 0 mm 2 m/s 639 mmHg 59%
    11:00 +1°C° 0 mm 2 m/s 639 mmHg 59%
    12:00 +2°C° 0 mm 2 m/s 639 mmHg 58%
    13:00 +3°C° 0 mm 2 m/s 639 mmHg 57%
    14:00 +3°C° 0 mm 2 m/s 639 mmHg 58%
    15:00 +3°C° 0 mm 2 m/s 639 mmHg 60%
    16:00 +3°C° 0 mm 2 m/s 638 mmHg 61%
    17:00 +1°C° 0 mm 2 m/s 638 mmHg 69%
    18:00 0°C° 0 mm 1 m/s 638 mmHg 77%
    19:00 -2°C° 0 mm 1 m/s 638 mmHg 85%
    20:00 -3°C° 0 mm 1 m/s 638 mmHg 83%
    21:00 -3°C° 0 mm 1 m/s 638 mmHg 81%
    22:00 -3°C° 0 mm 1 m/s 639 mmHg 80%
    23:00 -3°C° 0 mm 1 m/s 639 mmHg 71%

    27 Mars, Mercredi

    Heure Température Précipitation Vent Pression Humidité
    00:00 -3°C° 0 mm 1 m/s 639 mmHg 63%
    01:00 -3°C° 0 mm 1 m/s 639 mmHg 55%
    02:00 -3°C° 0 mm 1 m/s 639 mmHg 50%
    03:00 -2°C° 0 mm 1 m/s 639 mmHg 44%
    04:00 -2°C° 0 mm 1 m/s 639 mmHg 39%
    05:00 -2°C° 0 mm 1 m/s 639 mmHg 39%
    06:00 -1°C° 0 mm 1 m/s 639 mmHg 39%
    07:00 -1°C° 0 mm 1 m/s 639 mmHg 39%
    08:00 +1°C° 0 mm 1 m/s 640 mmHg 43%
    09:00 +2°C° 0 mm 2 m/s 640 mmHg 46%
    10:00 +5°C° 0 mm 2 m/s 641 mmHg 50%
    11:00 +5°C° 0 mm 2 m/s 641 mmHg 52%
    12:00 +5°C° 0 mm 2 m/s 640 mmHg 54%
    13:00 +6°C° 0 mm 2 m/s 640 mmHg 56%
    14:00 +6°C° 0 mm 2 m/s 640 mmHg 58%
    15:00 +5°C° 0 mm 2 m/s 640 mmHg 60%
    16:00 +5°C° 0 mm 2 m/s 639 mmHg 62%
    17:00 +3°C° 0 mm 2 m/s 639 mmHg 69%
    18:00 +1°C° 0 mm 2 m/s 639 mmHg 77%
    19:00 0°C° 0 mm 1 m/s 639 mmHg 85%
    20:00 -1°C° 0 mm 1 m/s 639 mmHg 87%
    21:00 -1°C° 0 mm 1 m/s 639 mmHg 89%
    22:00 -1°C° 0 mm 1 m/s 640 mmHg 91%
    23:00 -1°C° 0 mm 1 m/s 640 mmHg 89%
    Voir plus